APSTAR-6C

Last updated on Wed Sep 17 2025 00:02:50 GMT+0000 (Coordinated Universal Time)

1 43450U 18041A 25259.79175993 -.00000337 00000+0 00000+0 0 9995 2 43450 0.0427 335.2504 0002912 275.3685 164.4129 1.00271547 27062
UTC large
Height (km)
Speed (km/s)
/
Latitude / Longitude
Inclination (degrees)
Orbital Period (minutes)
Azimuth
Elevation
Range (km)
Doppler Factor

Next 0 passes for location: London (51.5072 / 0.1276)

Sorry there are no passes over London.